owner,sensor,date,latitude,longitude,air_temperature,qcFlag 
WAVCIS,ioos:station:WAVCIS:CSI15:1,2011-11-01T00:00:00Z,28.8332,-90.8320,23.78,11111222 
WAVCIS,ioos:station:WAVCIS:CSI15:1,2011-11-01T01:00:00Z,28.8332,-90.8320,24.03,11111222 
WAVCIS,ioos:station:WAVCIS:CSI15:1,2011-11-01T02:00:00Z,28.8332,-90.8320,24.1,11111222 
WAVCIS,ioos:station:WAVCIS:CSI15:1,2011-11-01T03:00:00Z,28.8332,-90.8320,24.06,11111222 
WAVCIS,ioos:station:WAVCIS:CSI15:1,2011-11-01T04:00:00Z,28.8332,-90.8320,24.13,11111222 
WAVCIS,ioos:station:WAVCIS:CSI15:1,2011-11-01T05:00:00Z,28.8332,-90.8320,24.3,11111222 
WAVCIS,ioos:station:WAVCIS:CSI15:1,2011-11-01T06:00:00Z,28.8332,-90.8320,24.26,11111222 
WAVCIS,ioos:station:WAVCIS:CSI15:1,2011-11-01T07:00:00Z,28.8332,-90.8320,24.15,11111222 
WAVCIS,ioos:station:WAVCIS:CSI15:1,2011-11-01T08:00:00Z,28.8332,-90.8320,23.96,11111222 
WAVCIS,ioos:station:WAVCIS:CSI15:1,2011-11-01T09:00:00Z,28.8332,-90.8320,23.85,11111222 
WAVCIS,ioos:station:WAVCIS:CSI15:1,2011-11-01T10:00:00Z,28.8332,-90.8320,23.79,11111222 
WAVCIS,ioos:station:WAVCIS:CSI15:1,2011-11-01T11:00:00Z,28.8332,-90.8320,23.68,11111222 
WAVCIS,ioos:station:WAVCIS:CSI15:1,2011-11-01T12:00:00Z,28.8332,-90.8320,23.47,11111222 
WAVCIS,ioos:station:WAVCIS:CSI15:1,2011-11-01T13:00:00Z,28.8332,-90.8320,23.54,11111222 
WAVCIS,ioos:station:WAVCIS:CSI15:1,2011-11-01T14:00:00Z,28.8332,-90.8320,23.57,11111222 
WAVCIS,ioos:station:WAVCIS:CSI15:1,2011-11-01T15:00:00Z,28.8332,-90.8320,23.64,11111222 
WAVCIS,ioos:station:WAVCIS:CSI15:1,2011-11-01T16:00:00Z,28.8332,-90.8320,23.57,11111222 
WAVCIS,ioos:station:WAVCIS:CSI15:1,2011-11-01T17:00:00Z,28.8332,-90.8320,24.1,11111222 
WAVCIS,ioos:station:WAVCIS:CSI15:1,2011-11-01T18:00:00Z,28.8332,-90.8320,25.05,11111222 
WAVCIS,ioos:station:WAVCIS:CSI15:1,2011-11-01T19:00:00Z,28.8332,-90.8320,25.45,11111222 
WAVCIS,ioos:station:WAVCIS:CSI15:1,2011-11-01T20:00:00Z,28.8332,-90.8320,25.21,11111222 
WAVCIS,ioos:station:WAVCIS:CSI15:1,2011-11-01T21:00:00Z,28.8332,-90.8320,25.15,11111222 
WAVCIS,ioos:station:WAVCIS:CSI15:1,2011-11-01T22:00:00Z,28.8332,-90.8320,25.51,11111222 
WAVCIS,ioos:station:WAVCIS:CSI15:1,2011-11-01T23:00:00Z,28.8332,-90.8320,25.71,11111222 
WAVCIS,ioos:station:WAVCIS:CSI15:1,2011-11-02T00:00:00Z,28.8332,-90.8320,25.86,11111222 
WAVCIS,ioos:station:WAVCIS:CSI15:1,2011-11-02T01:00:00Z,28.8332,-90.8320,25.77,11111222 
WAVCIS,ioos:station:WAVCIS:CSI15:1,2011-11-02T02:00:00Z,28.8332,-90.8320,26.14,11111222 
WAVCIS,ioos:station:WAVCIS:CSI15:1,2011-11-02T03:00:00Z,28.8332,-90.8320,26.69,11111222 
WAVCIS,ioos:station:WAVCIS:CSI15:1,2011-11-02T04:00:00Z,28.8332,-90.8320,26.57,11111222 
WAVCIS,ioos:station:WAVCIS:CSI15:1,2011-11-02T05:00:00Z,28.8332,-90.8320,26.62,11111222 
WAVCIS,ioos:station:WAVCIS:CSI15:1,2011-11-02T06:00:00Z,28.8332,-90.8320,26.68,11111222 
WAVCIS,ioos:station:WAVCIS:CSI15:1,2011-11-02T07:00:00Z,28.8332,-90.8320,26.51,11111222 
WAVCIS,ioos:station:WAVCIS:CSI15:1,2011-11-02T08:00:00Z,28.8332,-90.8320,26.11,11111222 
WAVCIS,ioos:station:WAVCIS:CSI15:1,2011-11-02T09:00:00Z,28.8332,-90.8320,26.36,11111222 
WAVCIS,ioos:station:WAVCIS:CSI15:1,2011-11-02T10:00:00Z,28.8332,-90.8320,26.77,11111222 
WAVCIS,ioos:station:WAVCIS:CSI15:1,2011-11-02T11:00:00Z,28.8332,-90.8320,26.69,11111222 
WAVCIS,ioos:station:WAVCIS:CSI15:1,2011-11-02T12:00:00Z,28.8332,-90.8320,26.74,11111222 
WAVCIS,ioos:station:WAVCIS:CSI15:1,2011-11-02T13:00:00Z,28.8332,-90.8320,26.88,11111222 
WAVCIS,ioos:station:WAVCIS:CSI15:1,2011-11-02T14:00:00Z,28.8332,-90.8320,26.99,11111222 
WAVCIS,ioos:station:WAVCIS:CSI15:1,2011-11-02T15:00:00Z,28.8332,-90.8320,27.29,11111222 
WAVCIS,ioos:station:WAVCIS:CSI15:1,2011-11-02T16:00:00Z,28.8332,-90.8320,27.35,11111222 
WAVCIS,ioos:station:WAVCIS:CSI15:1,2011-11-02T17:00:00Z,28.8332,-90.8320,27.35,11111222 
WAVCIS,ioos:station:WAVCIS:CSI15:1,2011-11-02T18:00:00Z,28.8332,-90.8320,27.53,11111222 
WAVCIS,ioos:station:WAVCIS:CSI15:1,2011-11-02T19:00:00Z,28.8332,-90.8320,27.48,11111222 
WAVCIS,ioos:station:WAVCIS:CSI15:1,2011-11-02T20:00:00Z,28.8332,-90.8320,27.56,11111222 
WAVCIS,ioos:station:WAVCIS:CSI15:1,2011-11-02T21:00:00Z,28.8332,-90.8320,27.54,11111222 
WAVCIS,ioos:station:WAVCIS:CSI15:1,2011-11-02T22:00:00Z,28.8332,-90.8320,26.95,11111222 
WAVCIS,ioos:station:WAVCIS:CSI15:1,2011-11-02T23:00:00Z,28.8332,-90.8320,26.88,11111222 
WAVCIS,ioos:station:WAVCIS:CSI15:1,2011-11-03T00:00:00Z,28.8332,-90.8320,26.47,11111222 
WAVCIS,ioos:station:WAVCIS:CSI15:1,2011-11-03T01:00:00Z,28.8332,-90.8320,26.64,11111222 
WAVCIS,ioos:station:WAVCIS:CSI15:1,2011-11-03T02:00:00Z,28.8332,-90.8320,26.65,11111222 
WAVCIS,ioos:station:WAVCIS:CSI15:1,2011-11-03T03:00:00Z,28.8332,-90.8320,26.92,11111222 
WAVCIS,ioos:station:WAVCIS:CSI15:1,2011-11-03T04:00:00Z,28.8332,-90.8320,28.04,11111222 
WAVCIS,ioos:station:WAVCIS:CSI15:1,2011-11-03T05:00:00Z,28.8332,-90.8320,28.07,11111222 
WAVCIS,ioos:station:WAVCIS:CSI15:1,2011-11-03T06:00:00Z,28.8332,-90.8320,28.02,11111222 
WAVCIS,ioos:station:WAVCIS:CSI15:1,2011-11-03T07:00:00Z,28.8332,-90.8320,27.85,11111222 
WAVCIS,ioos:station:WAVCIS:CSI15:1,2011-11-03T08:00:00Z,28.8332,-90.8320,27.84,11111222 
WAVCIS,ioos:station:WAVCIS:CSI15:1,2011-11-03T09:00:00Z,28.8332,-90.8320,27.68,11111222 
WAVCIS,ioos:station:WAVCIS:CSI15:1,2011-11-03T10:00:00Z,28.8332,-90.8320,27.82,11111222 
WAVCIS,ioos:station:WAVCIS:CSI15:1,2011-11-03T11:00:00Z,28.8332,-90.8320,27.83,11111222 
WAVCIS,ioos:station:WAVCIS:CSI15:1,2011-11-03T12:00:00Z,28.8332,-90.8320,27.69,11111222 
WAVCIS,ioos:station:WAVCIS:CSI15:1,2011-11-03T13:00:00Z,28.8332,-90.8320,27.93,11111222 
WAVCIS,ioos:station:WAVCIS:CSI15:1,2011-11-03T14:00:00Z,28.8332,-90.8320,28.16,11111222 
WAVCIS,ioos:station:WAVCIS:CSI15:1,2011-11-03T15:00:00Z,28.8332,-90.8320,28.08,11111222 
WAVCIS,ioos:station:WAVCIS:CSI15:1,2011-11-03T16:00:00Z,28.8332,-90.8320,23.96,11111222 
WAVCIS,ioos:station:WAVCIS:CSI15:1,2011-11-03T17:00:00Z,28.8332,-90.8320,22.61,11111222 
WAVCIS,ioos:station:WAVCIS:CSI15:1,2011-11-03T18:00:00Z,28.8332,-90.8320,20.97,11111222 
WAVCIS,ioos:station:WAVCIS:CSI15:1,2011-11-03T19:00:00Z,28.8332,-90.8320,19.97,11111222 
WAVCIS,ioos:station:WAVCIS:CSI15:1,2011-11-03T20:00:00Z,28.8332,-90.8320,20.18,11111222 
WAVCIS,ioos:station:WAVCIS:CSI15:1,2011-11-03T21:00:00Z,28.8332,-90.8320,20.59,11111222 
WAVCIS,ioos:station:WAVCIS:CSI15:1,2011-11-03T22:00:00Z,28.8332,-90.8320,28.77,11111222 
WAVCIS,ioos:station:WAVCIS:CSI15:1,2011-11-03T23:00:00Z,28.8332,-90.8320,21.47,11111222 
WAVCIS,ioos:station:WAVCIS:CSI15:1,2011-11-04T00:00:00Z,28.8332,-90.8320,21.15,11111222 
WAVCIS,ioos:station:WAVCIS:CSI15:1,2011-11-04T01:00:00Z,28.8332,-90.8320,20.37,11111222 
WAVCIS,ioos:station:WAVCIS:CSI15:1,2011-11-04T02:00:00Z,28.8332,-90.8320,19.63,11111222 
WAVCIS,ioos:station:WAVCIS:CSI15:1,2011-11-04T03:00:00Z,28.8332,-90.8320,19.38,11111222 
WAVCIS,ioos:station:WAVCIS:CSI15:1,2011-11-04T04:00:00Z,28.8332,-90.8320,19.36,11111222 
WAVCIS,ioos:station:WAVCIS:CSI15:1,2011-11-04T05:00:00Z,28.8332,-90.8320,18.91,11111222 
WAVCIS,ioos:station:WAVCIS:CSI15:1,2011-11-04T06:00:00Z,28.8332,-90.8320,18.53,11111222 
WAVCIS,ioos:station:WAVCIS:CSI15:1,2011-11-04T07:00:00Z,28.8332,-90.8320,18.15,11111222 
WAVCIS,ioos:station:WAVCIS:CSI15:1,2011-11-04T08:00:00Z,28.8332,-90.8320,18.19,11111222 
WAVCIS,ioos:station:WAVCIS:CSI15:1,2011-11-04T09:00:00Z,28.8332,-90.8320,18.21,11111222 
WAVCIS,ioos:station:WAVCIS:CSI15:1,2011-11-04T10:00:00Z,28.8332,-90.8320,17.55,11111222 
WAVCIS,ioos:station:WAVCIS:CSI15:1,2011-11-04T11:00:00Z,28.8332,-90.8320,17.18,11111222 
WAVCIS,ioos:station:WAVCIS:CSI15:1,2011-11-04T12:00:00Z,28.8332,-90.8320,16.74,11111222 
WAVCIS,ioos:station:WAVCIS:CSI15:1,2011-11-04T13:00:00Z,28.8332,-90.8320,16.24,11111222 
WAVCIS,ioos:station:WAVCIS:CSI15:1,2011-11-04T14:00:00Z,28.8332,-90.8320,15.85,11111222 
WAVCIS,ioos:station:WAVCIS:CSI15:1,2011-11-04T15:00:00Z,28.8332,-90.8320,16.05,11111222 
WAVCIS,ioos:station:WAVCIS:CSI15:1,2011-11-04T16:00:00Z,28.8332,-90.8320,16.15,11111222 
WAVCIS,ioos:station:WAVCIS:CSI15:1,2011-11-04T17:00:00Z,28.8332,-90.8320,16.58,11111222 
WAVCIS,ioos:station:WAVCIS:CSI15:1,2011-11-04T18:00:00Z,28.8332,-90.8320,17.44,11111222 
WAVCIS,ioos:station:WAVCIS:CSI15:1,2011-11-04T19:00:00Z,28.8332,-90.8320,17.85,11111222 
WAVCIS,ioos:station:WAVCIS:CSI15:1,2011-11-04T20:00:00Z,28.8332,-90.8320,18.62,11111222 
WAVCIS,ioos:station:WAVCIS:CSI15:1,2011-11-04T21:00:00Z,28.8332,-90.8320,19.51,11111222 
WAVCIS,ioos:station:WAVCIS:CSI15:1,2011-11-04T22:00:00Z,28.8332,-90.8320,19.83,11111222 
WAVCIS,ioos:station:WAVCIS:CSI15:1,2011-11-04T23:00:00Z,28.8332,-90.8320,19.89,11111222 
WAVCIS,ioos:station:WAVCIS:CSI15:1,2011-11-05T00:00:00Z,28.8332,-90.8320,20.33,11111222 
WAVCIS,ioos:station:WAVCIS:CSI15:1,2011-11-05T01:00:00Z,28.8332,-90.8320,20.65,11111222 
WAVCIS,ioos:station:WAVCIS:CSI15:1,2011-11-05T02:00:00Z,28.8332,-90.8320,21.04,11111222 
WAVCIS,ioos:station:WAVCIS:CSI15:1,2011-11-05T03:00:00Z,28.8332,-90.8320,21.0,11111222 
WAVCIS,ioos:station:WAVCIS:CSI15:1,2011-11-05T04:00:00Z,28.8332,-90.8320,20.88,11111222 
WAVCIS,ioos:station:WAVCIS:CSI15:1,2011-11-05T05:00:00Z,28.8332,-90.8320,20.31,11111222 
WAVCIS,ioos:station:WAVCIS:CSI15:1,2011-11-05T06:00:00Z,28.8332,-90.8320,19.72,11111222 
WAVCIS,ioos:station:WAVCIS:CSI15:1,2011-11-05T07:00:00Z,28.8332,-90.8320,19.39,11111222 
WAVCIS,ioos:station:WAVCIS:CSI15:1,2011-11-05T08:00:00Z,28.8332,-90.8320,19.45,11111222 
WAVCIS,ioos:station:WAVCIS:CSI15:1,2011-11-05T09:00:00Z,28.8332,-90.8320,19.13,11111222 
WAVCIS,ioos:station:WAVCIS:CSI15:1,2011-11-05T10:00:00Z,28.8332,-90.8320,19.58,11111222 
WAVCIS,ioos:station:WAVCIS:CSI15:1,2011-11-05T11:00:00Z,28.8332,-90.8320,20.38,11111222 
WAVCIS,ioos:station:WAVCIS:CSI15:1,2011-11-05T12:00:00Z,28.8332,-90.8320,20.27,11111222 
WAVCIS,ioos:station:WAVCIS:CSI15:1,2011-11-05T13:00:00Z,28.8332,-90.8320,20.23,11111222 
WAVCIS,ioos:station:WAVCIS:CSI15:1,2011-11-05T14:00:00Z,28.8332,-90.8320,20.13,11111222 
WAVCIS,ioos:station:WAVCIS:CSI15:1,2011-11-05T15:00:00Z,28.8332,-90.8320,20.66,11111222 
WAVCIS,ioos:station:WAVCIS:CSI15:1,2011-11-05T16:00:00Z,28.8332,-90.8320,20.96,11111222 
WAVCIS,ioos:station:WAVCIS:CSI15:1,2011-11-05T17:00:00Z,28.8332,-90.8320,21.16,11111222 
WAVCIS,ioos:station:WAVCIS:CSI15:1,2011-11-05T18:00:00Z,28.8332,-90.8320,21.9,11111222 
WAVCIS,ioos:station:WAVCIS:CSI15:1,2011-11-05T19:00:00Z,28.8332,-90.8320,22.14,11111222 
WAVCIS,ioos:station:WAVCIS:CSI15:1,2011-11-05T20:00:00Z,28.8332,-90.8320,22.88,11111222 
WAVCIS,ioos:station:WAVCIS:CSI15:1,2011-11-05T21:00:00Z,28.8332,-90.8320,23.71,11111222 
WAVCIS,ioos:station:WAVCIS:CSI15:1,2011-11-05T22:00:00Z,28.8332,-90.8320,24.3,11111222 
WAVCIS,ioos:station:WAVCIS:CSI15:1,2011-11-05T23:00:00Z,28.8332,-90.8320,24.06,11111222 
WAVCIS,ioos:station:WAVCIS:CSI15:1,2011-11-06T00:00:00Z,28.8332,-90.8320,23.98,11111222 
WAVCIS,ioos:station:WAVCIS:CSI15:1,2011-11-06T01:00:00Z,28.8332,-90.8320,24.45,11111222 
WAVCIS,ioos:station:WAVCIS:CSI15:1,2011-11-06T02:00:00Z,28.8332,-90.8320,25.14,11111222 
WAVCIS,ioos:station:WAVCIS:CSI15:1,2011-11-06T03:00:00Z,28.8332,-90.8320,25.91,11111222 
WAVCIS,ioos:station:WAVCIS:CSI15:1,2011-11-06T04:00:00Z,28.8332,-90.8320,25.72,11111222 
WAVCIS,ioos:station:WAVCIS:CSI15:1,2011-11-06T05:00:00Z,28.8332,-90.8320,25.89,11111222 
WAVCIS,ioos:station:WAVCIS:CSI15:1,2011-11-06T06:00:00Z,28.8332,-90.8320,26.82,11111222 
WAVCIS,ioos:station:WAVCIS:CSI15:1,2011-11-06T07:00:00Z,28.8332,-90.8320,26.99,11111222 
WAVCIS,ioos:station:WAVCIS:CSI15:1,2011-11-06T08:00:00Z,28.8332,-90.8320,26.85,11111222 
WAVCIS,ioos:station:WAVCIS:CSI15:1,2011-11-06T09:00:00Z,28.8332,-90.8320,26.78,11111222 
WAVCIS,ioos:station:WAVCIS:CSI15:1,2011-11-06T10:00:00Z,28.8332,-90.8320,26.84,11111222 
WAVCIS,ioos:station:WAVCIS:CSI15:1,2011-11-06T11:00:00Z,28.8332,-90.8320,27.2,11111222 
WAVCIS,ioos:station:WAVCIS:CSI15:1,2011-11-06T12:00:00Z,28.8332,-90.8320,27.42,11111222 
WAVCIS,ioos:station:WAVCIS:CSI15:1,2011-11-06T13:00:00Z,28.8332,-90.8320,28.86,11111222 
WAVCIS,ioos:station:WAVCIS:CSI15:1,2011-11-06T14:00:00Z,28.8332,-90.8320,28.03,11111222 
WAVCIS,ioos:station:WAVCIS:CSI15:1,2011-11-06T15:00:00Z,28.8332,-90.8320,27.82,11111222 
WAVCIS,ioos:station:WAVCIS:CSI15:1,2011-11-06T16:00:00Z,28.8332,-90.8320,28.0,11111222 
WAVCIS,ioos:station:WAVCIS:CSI15:1,2011-11-06T17:00:00Z,28.8332,-90.8320,27.87,11111222 
WAVCIS,ioos:station:WAVCIS:CSI15:1,2011-11-06T18:00:00Z,28.8332,-90.8320,26.03,11111222 
WAVCIS,ioos:station:WAVCIS:CSI15:1,2011-11-06T19:00:00Z,28.8332,-90.8320,25.36,11111222 
WAVCIS,ioos:station:WAVCIS:CSI15:1,2011-11-06T20:00:00Z,28.8332,-90.8320,26.28,11111222 
WAVCIS,ioos:station:WAVCIS:CSI15:1,2011-11-06T21:00:00Z,28.8332,-90.8320,26.31,11111222 
WAVCIS,ioos:station:WAVCIS:CSI15:1,2011-11-06T22:00:00Z,28.8332,-90.8320,26.12,11111222 
WAVCIS,ioos:station:WAVCIS:CSI15:1,2011-11-06T23:00:00Z,28.8332,-90.8320,25.49,11111222 
WAVCIS,ioos:station:WAVCIS:CSI15:1,2011-11-07T00:00:00Z,28.8332,-90.8320,25.46,11111222 
WAVCIS,ioos:station:WAVCIS:CSI15:1,2011-11-07T01:00:00Z,28.8332,-90.8320,25.39,11111222 
WAVCIS,ioos:station:WAVCIS:CSI15:1,2011-11-07T02:00:00Z,28.8332,-90.8320,25.15,11111222 
WAVCIS,ioos:station:WAVCIS:CSI15:1,2011-11-07T03:00:00Z,28.8332,-90.8320,25.62,11111222 
WAVCIS,ioos:station:WAVCIS:CSI15:1,2011-11-07T04:00:00Z,28.8332,-90.8320,25.64,11111222 
WAVCIS,ioos:station:WAVCIS:CSI15:1,2011-11-07T05:00:00Z,28.8332,-90.8320,26.26,11111222 
WAVCIS,ioos:station:WAVCIS:CSI15:1,2011-11-07T06:00:00Z,28.8332,-90.8320,27.08,11111222 
WAVCIS,ioos:station:WAVCIS:CSI15:1,2011-11-07T07:00:00Z,28.8332,-90.8320,27.17,11111222 
WAVCIS,ioos:station:WAVCIS:CSI15:1,2011-11-07T08:00:00Z,28.8332,-90.8320,26.69,11111222 
WAVCIS,ioos:station:WAVCIS:CSI15:1,2011-11-07T09:00:00Z,28.8332,-90.8320,27.38,11111222 
WAVCIS,ioos:station:WAVCIS:CSI15:1,2011-11-07T10:00:00Z,28.8332,-90.8320,28.66,11111222 
WAVCIS,ioos:station:WAVCIS:CSI15:1,2011-11-07T11:00:00Z,28.8332,-90.8320,27.73,11111222 
WAVCIS,ioos:station:WAVCIS:CSI15:1,2011-11-07T12:00:00Z,28.8332,-90.8320,27.68,11111222 
WAVCIS,ioos:station:WAVCIS:CSI15:1,2011-11-07T13:00:00Z,28.8332,-90.8320,27.84,11111222 
WAVCIS,ioos:station:WAVCIS:CSI15:1,2011-11-07T14:00:00Z,28.8332,-90.8320,27.84,11111222 
WAVCIS,ioos:station:WAVCIS:CSI15:1,2011-11-07T15:00:00Z,28.8332,-90.8320,27.96,11111222 
WAVCIS,ioos:station:WAVCIS:CSI15:1,2011-11-07T16:00:00Z,28.8332,-90.8320,27.92,11111222 
WAVCIS,ioos:station:WAVCIS:CSI15:1,2011-11-07T17:00:00Z,28.8332,-90.8320,28.21,11111222 
WAVCIS,ioos:station:WAVCIS:CSI15:1,2011-11-07T18:00:00Z,28.8332,-90.8320,27.93,11111222 
WAVCIS,ioos:station:WAVCIS:CSI15:1,2011-11-07T19:00:00Z,28.8332,-90.8320,27.03,11111222 
WAVCIS,ioos:station:WAVCIS:CSI15:1,2011-11-07T20:00:00Z,28.8332,-90.8320,27.0,11111222 
WAVCIS,ioos:station:WAVCIS:CSI15:1,2011-11-07T21:00:00Z,28.8332,-90.8320,27.02,11111222 
WAVCIS,ioos:station:WAVCIS:CSI15:1,2011-11-07T22:00:00Z,28.8332,-90.8320,27.08,11111222 
WAVCIS,ioos:station:WAVCIS:CSI15:1,2011-11-07T23:00:00Z,28.8332,-90.8320,27.14,11111222 
WAVCIS,ioos:station:WAVCIS:CSI15:1,2011-11-08T00:00:00Z,28.8332,-90.8320,26.98,11111222 
WAVCIS,ioos:station:WAVCIS:CSI15:1,2011-11-08T01:00:00Z,28.8332,-90.8320,27.09,11111222 
WAVCIS,ioos:station:WAVCIS:CSI15:1,2011-11-08T02:00:00Z,28.8332,-90.8320,27.02,11111222 
WAVCIS,ioos:station:WAVCIS:CSI15:1,2011-11-08T03:00:00Z,28.8332,-90.8320,26.84,11111222 
WAVCIS,ioos:station:WAVCIS:CSI15:1,2011-11-08T04:00:00Z,28.8332,-90.8320,27.34,11111222 
WAVCIS,ioos:station:WAVCIS:CSI15:1,2011-11-08T05:00:00Z,28.8332,-90.8320,27.92,11111222 
WAVCIS,ioos:station:WAVCIS:CSI15:1,2011-11-08T06:00:00Z,28.8332,-90.8320,29.26,11111222 
WAVCIS,ioos:station:WAVCIS:CSI15:1,2011-11-08T07:00:00Z,28.8332,-90.8320,29.56,11111222 
WAVCIS,ioos:station:WAVCIS:CSI15:1,2011-11-08T08:00:00Z,28.8332,-90.8320,28.98,11111222 
WAVCIS,ioos:station:WAVCIS:CSI15:1,2011-11-08T09:00:00Z,28.8332,-90.8320,28.22,11111222 
WAVCIS,ioos:station:WAVCIS:CSI15:1,2011-11-08T10:00:00Z,28.8332,-90.8320,28.08,11111222 
WAVCIS,ioos:station:WAVCIS:CSI15:1,2011-11-08T11:00:00Z,28.8332,-90.8320,28.19,11111222 
WAVCIS,ioos:station:WAVCIS:CSI15:1,2011-11-08T12:00:00Z,28.8332,-90.8320,27.71,11111222 
WAVCIS,ioos:station:WAVCIS:CSI15:1,2011-11-08T13:00:00Z,28.8332,-90.8320,29.6,11111222 
WAVCIS,ioos:station:WAVCIS:CSI15:1,2011-11-08T14:00:00Z,28.8332,-90.8320,27.75,11111222 
WAVCIS,ioos:station:WAVCIS:CSI15:1,2011-11-08T15:00:00Z,28.8332,-90.8320,28.63,11111222 
WAVCIS,ioos:station:WAVCIS:CSI15:1,2011-11-08T16:00:00Z,28.8332,-90.8320,30.91,11111222 
WAVCIS,ioos:station:WAVCIS:CSI15:1,2011-11-08T17:00:00Z,28.8332,-90.8320,27.9,11111222 
WAVCIS,ioos:station:WAVCIS:CSI15:1,2011-11-08T18:00:00Z,28.8332,-90.8320,27.65,11111222 
WAVCIS,ioos:station:WAVCIS:CSI15:1,2011-11-08T19:00:00Z,28.8332,-90.8320,28.33,11111222 
WAVCIS,ioos:station:WAVCIS:CSI15:1,2011-11-08T20:00:00Z,28.8332,-90.8320,29.25,11111222 
WAVCIS,ioos:station:WAVCIS:CSI15:1,2011-11-08T21:00:00Z,28.8332,-90.8320,28.87,11111222 
WAVCIS,ioos:station:WAVCIS:CSI15:1,2011-11-08T22:00:00Z,28.8332,-90.8320,28.83,11111222 
WAVCIS,ioos:station:WAVCIS:CSI15:1,2011-11-08T23:00:00Z,28.8332,-90.8320,28.63,11111222 
WAVCIS,ioos:station:WAVCIS:CSI15:1,2011-11-09T00:00:00Z,28.8332,-90.8320,28.42,11111222 
WAVCIS,ioos:station:WAVCIS:CSI15:1,2011-11-09T01:00:00Z,28.8332,-90.8320,28.31,11111222 
WAVCIS,ioos:station:WAVCIS:CSI15:1,2011-11-09T02:00:00Z,28.8332,-90.8320,27.96,11111222 
WAVCIS,ioos:station:WAVCIS:CSI15:1,2011-11-09T03:00:00Z,28.8332,-90.8320,28.02,11111222 
WAVCIS,ioos:station:WAVCIS:CSI15:1,2011-11-09T04:00:00Z,28.8332,-90.8320,27.83,11111222 
WAVCIS,ioos:station:WAVCIS:CSI15:1,2011-11-09T05:00:00Z,28.8332,-90.8320,27.84,11111222 
WAVCIS,ioos:station:WAVCIS:CSI15:1,2011-11-09T06:00:00Z,28.8332,-90.8320,27.88,11111222 
WAVCIS,ioos:station:WAVCIS:CSI15:1,2011-11-09T07:00:00Z,28.8332,-90.8320,27.85,11111222 
WAVCIS,ioos:station:WAVCIS:CSI15:1,2011-11-09T08:00:00Z,28.8332,-90.8320,27.86,11111222 
WAVCIS,ioos:station:WAVCIS:CSI15:1,2011-11-09T09:00:00Z,28.8332,-90.8320,27.84,11111222 
WAVCIS,ioos:station:WAVCIS:CSI15:1,2011-11-09T10:00:00Z,28.8332,-90.8320,27.85,11111222 
WAVCIS,ioos:station:WAVCIS:CSI15:1,2011-11-09T11:00:00Z,28.8332,-90.8320,28.33,11111222 
WAVCIS,ioos:station:WAVCIS:CSI15:1,2011-11-09T12:00:00Z,28.8332,-90.8320,24.64,11111222 
WAVCIS,ioos:station:WAVCIS:CSI15:1,2011-11-09T13:00:00Z,28.8332,-90.8320,25.06,11111222 
WAVCIS,ioos:station:WAVCIS:CSI15:1,2011-11-09T14:00:00Z,28.8332,-90.8320,25.38,11111222 
WAVCIS,ioos:station:WAVCIS:CSI15:1,2011-11-09T15:00:00Z,28.8332,-90.8320,25.65,11111222 
WAVCIS,ioos:station:WAVCIS:CSI15:1,2011-11-09T16:00:00Z,28.8332,-90.8320,25.98,11111222 
WAVCIS,ioos:station:WAVCIS:CSI15:1,2011-11-09T17:00:00Z,28.8332,-90.8320,24.05,11111222 
WAVCIS,ioos:station:WAVCIS:CSI15:1,2011-11-09T18:00:00Z,28.8332,-90.8320,23.38,11111222 
WAVCIS,ioos:station:WAVCIS:CSI15:1,2011-11-09T19:00:00Z,28.8332,-90.8320,23.58,11111222 
WAVCIS,ioos:station:WAVCIS:CSI15:1,2011-11-09T20:00:00Z,28.8332,-90.8320,23.89,11111222 
WAVCIS,ioos:station:WAVCIS:CSI15:1,2011-11-09T22:00:00Z,28.8332,-90.8320,25.08,11111222 
WAVCIS,ioos:station:WAVCIS:CSI15:1,2011-11-09T23:00:00Z,28.8332,-90.8320,25.01,11111222 
WAVCIS,ioos:station:WAVCIS:CSI15:1,2011-11-10T00:00:00Z,28.8332,-90.8320,24.76,11111222 
WAVCIS,ioos:station:WAVCIS:CSI15:1,2011-11-10T01:00:00Z,28.8332,-90.8320,24.08,11111222 
WAVCIS,ioos:station:WAVCIS:CSI15:1,2011-11-10T02:00:00Z,28.8332,-90.8320,22.89,11111222 
WAVCIS,ioos:station:WAVCIS:CSI15:1,2011-11-10T03:00:00Z,28.8332,-90.8320,21.65,11111222 
WAVCIS,ioos:station:WAVCIS:CSI15:1,2011-11-10T04:00:00Z,28.8332,-90.8320,20.54,11111222 
WAVCIS,ioos:station:WAVCIS:CSI15:1,2011-11-10T05:00:00Z,28.8332,-90.8320,19.16,11111222 
WAVCIS,ioos:station:WAVCIS:CSI15:1,2011-11-10T06:00:00Z,28.8332,-90.8320,18.92,11111222 
WAVCIS,ioos:station:WAVCIS:CSI15:1,2011-11-10T07:00:00Z,28.8332,-90.8320,18.48,11111222 
WAVCIS,ioos:station:WAVCIS:CSI15:1,2011-11-10T08:00:00Z,28.8332,-90.8320,18.23,11111222 
WAVCIS,ioos:station:WAVCIS:CSI15:1,2011-11-10T09:00:00Z,28.8332,-90.8320,17.57,11111222 
WAVCIS,ioos:station:WAVCIS:CSI15:1,2011-11-10T10:00:00Z,28.8332,-90.8320,16.84,11111222 
WAVCIS,ioos:station:WAVCIS:CSI15:1,2011-11-10T11:00:00Z,28.8332,-90.8320,16.62,11111222 
WAVCIS,ioos:station:WAVCIS:CSI15:1,2011-11-10T12:00:00Z,28.8332,-90.8320,15.94,11111222 
WAVCIS,ioos:station:WAVCIS:CSI15:1,2011-11-10T13:00:00Z,28.8332,-90.8320,16.38,11111222 
WAVCIS,ioos:station:WAVCIS:CSI15:1,2011-11-10T14:00:00Z,28.8332,-90.8320,16.68,11111222 
WAVCIS,ioos:station:WAVCIS:CSI15:1,2011-11-10T15:00:00Z,28.8332,-90.8320,16.7,11111222 
WAVCIS,ioos:station:WAVCIS:CSI15:1,2011-11-10T16:00:00Z,28.8332,-90.8320,16.8,11111222 
WAVCIS,ioos:station:WAVCIS:CSI15:1,2011-11-10T17:00:00Z,28.8332,-90.8320,16.72,11111222 
WAVCIS,ioos:station:WAVCIS:CSI15:1,2011-11-10T18:00:00Z,28.8332,-90.8320,16.78,11111222 
WAVCIS,ioos:station:WAVCIS:CSI15:1,2011-11-10T19:00:00Z,28.8332,-90.8320,17.22,11111222 
WAVCIS,ioos:station:WAVCIS:CSI15:1,2011-11-10T20:00:00Z,28.8332,-90.8320,17.92,11111222 
WAVCIS,ioos:station:WAVCIS:CSI15:1,2011-11-10T21:00:00Z,28.8332,-90.8320,18.65,11111222 
WAVCIS,ioos:station:WAVCIS:CSI15:1,2011-11-10T22:00:00Z,28.8332,-90.8320,19.07,11111222 
WAVCIS,ioos:station:WAVCIS:CSI15:1,2011-11-10T23:00:00Z,28.8332,-90.8320,19.71,11111222 
WAVCIS,ioos:station:WAVCIS:CSI15:1,2011-11-11T00:00:00Z,28.8332,-90.8320,19.75,11111222 
WAVCIS,ioos:station:WAVCIS:CSI15:1,2011-11-11T01:00:00Z,28.8332,-90.8320,19.3,11111222 
WAVCIS,ioos:station:WAVCIS:CSI15:1,2011-11-11T02:00:00Z,28.8332,-90.8320,18.8,11111222 
WAVCIS,ioos:station:WAVCIS:CSI15:1,2011-11-11T03:00:00Z,28.8332,-90.8320,18.25,11111222 
WAVCIS,ioos:station:WAVCIS:CSI15:1,2011-11-11T04:00:00Z,28.8332,-90.8320,17.85,11111222 
WAVCIS,ioos:station:WAVCIS:CSI15:1,2011-11-11T05:00:00Z,28.8332,-90.8320,17.31,11111222 
WAVCIS,ioos:station:WAVCIS:CSI15:1,2011-11-11T06:00:00Z,28.8332,-90.8320,17.2,11111222 
WAVCIS,ioos:station:WAVCIS:CSI15:1,2011-11-11T07:00:00Z,28.8332,-90.8320,17.32,11111222 
WAVCIS,ioos:station:WAVCIS:CSI15:1,2011-11-11T08:00:00Z,28.8332,-90.8320,17.19,11111222 
WAVCIS,ioos:station:WAVCIS:CSI15:1,2011-11-11T09:00:00Z,28.8332,-90.8320,17.02,11111222 
WAVCIS,ioos:station:WAVCIS:CSI15:1,2011-11-11T10:00:00Z,28.8332,-90.8320,16.98,11111222 
WAVCIS,ioos:station:WAVCIS:CSI15:1,2011-11-11T11:00:00Z,28.8332,-90.8320,17.09,11111222 
WAVCIS,ioos:station:WAVCIS:CSI15:1,2011-11-11T12:00:00Z,28.8332,-90.8320,16.97,11111222 
WAVCIS,ioos:station:WAVCIS:CSI15:1,2011-11-11T13:00:00Z,28.8332,-90.8320,16.96,11111222 
WAVCIS,ioos:station:WAVCIS:CSI15:1,2011-11-11T14:00:00Z,28.8332,-90.8320,17.53,11111222 
WAVCIS,ioos:station:WAVCIS:CSI15:1,2011-11-11T15:00:00Z,28.8332,-90.8320,17.55,11111222 
WAVCIS,ioos:station:WAVCIS:CSI15:1,2011-11-11T16:00:00Z,28.8332,-90.8320,17.91,11111222 
WAVCIS,ioos:station:WAVCIS:CSI15:1,2011-11-11T17:00:00Z,28.8332,-90.8320,18.21,11111222 
WAVCIS,ioos:station:WAVCIS:CSI15:1,2011-11-11T18:00:00Z,28.8332,-90.8320,18.58,11111222 
WAVCIS,ioos:station:WAVCIS:CSI15:1,2011-11-11T19:00:00Z,28.8332,-90.8320,18.9,11111222 
WAVCIS,ioos:station:WAVCIS:CSI15:1,2011-11-11T20:00:00Z,28.8332,-90.8320,19.55,11111222 
WAVCIS,ioos:station:WAVCIS:CSI15:1,2011-11-11T21:00:00Z,28.8332,-90.8320,20.65,11111222 
WAVCIS,ioos:station:WAVCIS:CSI15:1,2011-11-11T22:00:00Z,28.8332,-90.8320,21.15,11111222 
WAVCIS,ioos:station:WAVCIS:CSI15:1,2011-11-11T23:00:00Z,28.8332,-90.8320,21.85,11111222 
WAVCIS,ioos:station:WAVCIS:CSI15:1,2011-11-12T00:00:00Z,28.8332,-90.8320,20.46,11111222 
WAVCIS,ioos:station:WAVCIS:CSI15:1,2011-11-12T01:00:00Z,28.8332,-90.8320,20.54,11111222 
WAVCIS,ioos:station:WAVCIS:CSI15:1,2011-11-12T02:00:00Z,28.8332,-90.8320,20.85,11111222 
WAVCIS,ioos:station:WAVCIS:CSI15:1,2011-11-12T03:00:00Z,28.8332,-90.8320,21.1,11111222 
WAVCIS,ioos:station:WAVCIS:CSI15:1,2011-11-12T04:00:00Z,28.8332,-90.8320,21.92,11111222 
WAVCIS,ioos:station:WAVCIS:CSI15:1,2011-11-12T05:00:00Z,28.8332,-90.8320,22.75,11111222 